GEFSNGP_prec_meanprecacc_024.txt.gz
Total_Precipitation_Accumulation
0.00 0.00 0.00 0.00 0.01 0.01 0.01 0.01 0.01 0.02 0.04 0.07 0.12 0.18 0.27 0.38 0.34 0.23 0.13 0.08 0.05 0.04 0.06 0.09 0.09 0.07 0.05 0.04 0.03 0.03 0.02 0.02 0.02 0.02 0.02 0.02 0.02 0.02 0.02 0.02 0.01 0.01 0.00 0.00
0.00 0.00 0.00 0.00 0.00 0.00 0.00 0.01 0.01 0.03 0.08 0.10 0.11 0.14 0.23 0.32 0.32 0.22 0.12 0.06 0.03 0.05 0.08 0.08 0.07 0.05 0.05 0.05 0.05 0.05 0.04 0.04 0.05 0.05 0.05 0.04 0.03 0.02 0.01 0.01 0.00 0.00 0.00 0.00
0.00 0.00 0.01 0.01 0.01 0.01 0.01 0.01 0.03 0.06 0.10 0.12 0.15 0.17 0.20 0.27 0.35 0.31 0.17 0.10 0.09 0.11 0.11 0.08 0.07 0.07 0.08 0.09 0.09 0.09 0.09 0.10 0.11 0.09 0.06 0.03 0.01 0.01 0.01 0.00 0.00 0.01 0.00 0.00
0.00 0.01 0.02 0.02 0.02 0.02 0.03 0.05 0.06 0.07 0.07 0.08 0.11 0.11 0.09 0.10 0.15 0.16 0.12 0.12 0.14 0.14 0.12 0.12 0.14 0.16 0.18 0.18 0.18 0.17 0.16 0.13 0.09 0.06 0.03 0.02 0.01 0.01 0.00 0.00 0.00 0.00 0.00 0.01
0.01 0.01 0.01 0.02 0.01 0.02 0.04 0.05 0.05 0.06 0.05 0.05 0.05 0.05 0.04 0.04 0.05 0.07 0.10 0.16 0.20 0.23 0.24 0.26 0.28 0.29 0.28 0.25 0.20 0.16 0.12 0.08 0.05 0.03 0.02 0.01 0.01 0.01 0.00 0.00 0.00 0.00 0.00 0.01
0.01 0.02 0.02 0.02 0.01 0.01 0.02 0.06 0.03 0.03 0.04 0.04 0.04 0.06 0.04 0.01 0.01 0.04 0.09 0.17 0.26 0.31 0.33 0.34 0.31 0.25 0.21 0.17 0.13 0.09 0.06 0.03 0.02 0.01 0.01 0.01 0.01 0.00 0.00 0.01 0.01 0.01 0.01 0.01
0.05 0.05 0.04 0.03 0.01 0.02 0.04 0.08 0.04 0.03 0.03 0.04 0.03 0.03 0.01 0.00 0.01 0.03 0.08 0.16 0.26 0.33 0.32 0.26 0.18 0.13 0.10 0.07 0.05 0.03 0.02 0.01 0.01 0.00 0.00 0.01 0.01 0.01 0.01 0.01 0.01 0.01 0.01 0.02
0.12 0.13 0.14 0.05 0.01 0.02 0.04 0.03 0.04 0.03 0.03 0.05 0.03 0.01 0.01 0.01 0.02 0.04 0.08 0.17 0.21 0.20 0.15 0.10 0.07 0.05 0.04 0.02 0.01 0.01 0.00 0.01 0.00 0.00 0.00 0.00 0.00 0.01 0.01 0.01 0.01 0.01 0.01 0.02
0.13 0.15 0.11 0.03 0.01 0.01 0.01 0.02 0.02 0.02 0.05 0.06 0.02 0.01 0.01 0.01 0.02 0.04 0.06 0.08 0.08 0.05 0.04 0.03 0.02 0.02 0.02 0.01 0.00 0.00 0.00 0.00 0.00 0.00 0.00 0.00 0.00 0.01 0.01 0.01 0.01 0.01 0.01 0.01
0.02 0.04 0.03 0.02 0.01 0.01 0.01 0.01 0.02 0.03 0.07 0.05 0.01 0.01 0.01 0.01 0.02 0.03 0.02 0.02 0.01 0.01 0.02 0.02 0.01 0.01 0.01 0.00 0.00 0.00 0.00 0.00 0.01 0.01 0.01 0.00 0.00 0.00 0.01 0.01 0.01 0.01 0.01 0.01
0.02 0.02 0.03 0.03 0.02 0.01 0.02 0.02 0.04 0.07 0.09 0.07 0.04 0.02 0.02 0.02 0.02 0.01 0.01 0.01 0.02 0.02 0.02 0.01 0.01 0.00 0.00 0.00 0.00 0.00 0.00 0.01 0.01 0.01 0.01 0.01 0.01 0.00 0.01 0.01 0.00 0.01 0.01 0.01
0.06 0.07 0.08 0.08 0.05 0.03 0.06 0.08 0.10 0.13 0.16 0.10 0.07 0.04 0.03 0.02 0.02 0.02 0.02 0.02 0.02 0.02 0.01 0.00 0.00 0.00 0.00 0.00 0.00 0.00 0.01 0.01 0.01 0.00 0.01 0.01 0.02 0.02 0.01 0.00 0.00 0.01 0.01 0.02
0.05 0.05 0.07 0.08 0.09 0.12 0.16 0.16 0.17 0.19 0.14 0.07 0.05 0.04 0.04 0.03 0.03 0.02 0.02 0.02 0.01 0.01 0.00 0.00 0.00 0.00 0.00 0.00 0.00 0.00 0.00 0.00 0.00 0.00 0.01 0.01 0.02 0.02 0.02 0.01 0.01 0.01 0.01 0.02
0.13 0.15 0.19 0.22 0.22 0.22 0.19 0.16 0.14 0.12 0.09 0.05 0.04 0.04 0.04 0.03 0.02 0.02 0.01 0.01 0.00 0.00 0.00 0.00 0.00 0.00 0.00 0.00 0.00 0.00 0.00 0.00 0.00 0.01 0.01 0.01 0.02 0.02 0.02 0.03 0.03 0.03 0.02 0.02
0.21 0.23 0.25 0.22 0.20 0.18 0.15 0.12 0.09 0.08 0.07 0.07 0.04 0.04 0.03 0.02 0.01 0.01 0.00 0.00 0.00 0.00 0.00 0.00 0.00 0.00 0.00 0.00 0.00 0.00 0.00 0.00 0.00 0.00 0.00 0.01 0.01 0.02 0.02 0.02 0.02 0.02 0.02 0.02
0.16 0.15 0.13 0.13 0.13 0.14 0.13 0.11 0.10 0.09 0.07 0.06 0.04 0.02 0.01 0.01 0.00 0.00 0.00 0.00 0.00 0.00 0.00 0.00 0.00 0.00 0.00 0.00 0.00 0.00 0.00 0.00 0.00 0.00 0.00 0.00 0.01 0.01 0.02 0.02 0.02 0.03 0.02 0.02
0.11 0.11 0.10 0.09 0.09 0.10 0.09 0.07 0.05 0.04 0.04 0.03 0.02 0.01 0.00 0.00 0.00 0.00 0.00 0.00 0.00 0.00 0.00 0.00 0.00 0.00 0.00 0.00 0.00 0.00 0.00 0.00 0.00 0.00 0.00 0.00 0.00 0.00 0.01 0.01 0.01 0.02 0.02 0.04
0.12 0.10 0.08 0.06 0.06 0.05 0.04 0.03 0.02 0.02 0.01 0.01 0.00 0.00 0.00 0.00 0.00 0.00 0.00 0.00 0.00 0.00 0.00 0.00 0.00 0.00 0.00 0.00 0.00 0.00 0.00 0.00 0.00 0.00 0.00 0.00 0.00 0.00 0.00 0.00 0.00 0.01 0.01 0.03
0.10 0.05 0.03 0.02 0.02 0.02 0.01 0.01 0.01 0.00 0.00 0.00 0.00 0.00 0.00 0.00 0.00 0.00 0.00 0.00 0.00 0.00 0.00 0.00 0.00 0.00 0.00 0.00 0.00 0.00 0.00 0.00 0.00 0.00 0.00 0.00 0.00 0.00 0.00 0.00 0.00 0.00 0.00 0.01
0.06 0.02 0.01 0.01 0.01 0.00 0.00 0.00 0.00 0.00 0.00 0.00 0.00 0.00 0.00 0.00 0.00 0.00 0.00 0.00 0.00 0.00 0.00 0.00 0.00 0.00 0.00 0.00 0.00 0.00 0.00 0.00 0.00 0.00 0.00 0.00 0.00 0.00 0.00 0.00 0.00 0.00 0.00 0.00
0.02 0.01 0.00 0.00 0.00 0.00 0.00 0.00 0.00 0.00 0.00 0.00 0.00 0.00 0.00 0.00 0.00 0.00 0.00 0.00 0.00 0.00 0.00 0.00 0.00 0.00 0.00 0.00 0.00 0.00 0.00 0.00 0.00 0.00 0.00 0.00 0.00 0.00 0.00 0.00 0.00 0.00 0.00 0.00
0.02 0.01 0.00 0.00 0.00 0.00 0.00 0.00 0.00 0.00 0.00 0.00 0.00 0.00 0.00 0.00 0.00 0.00 0.00 0.00 0.00 0.00 0.00 0.00 0.00 0.00 0.00 0.00 0.00 0.00 0.00 0.00 0.00 0.00 0.00 0.00 0.00 0.00 0.00 0.00 0.00 0.00 0.00 0.00
0.02 0.01 0.00 0.00 0.00 0.00 0.00 0.00 0.00 0.00 0.00 0.00 0.00 0.00 0.00 0.00 0.00 0.00 0.00 0.00 0.00 0.00 0.00 0.00 0.00 0.00 0.00 0.00 0.00 0.00 0.00 0.00 0.00 0.00 0.00 0.00 0.00 0.00 0.00 0.00 0.00 0.00 0.00 0.00
0.03 0.02 0.00 0.00 0.00 0.00 0.00 0.00 0.00 0.00 0.00 0.00 0.00 0.00 0.00 0.00 0.00 0.00 0.00 0.00 0.00 0.00 0.00 0.00 0.00 0.00 0.00 0.00 0.00 0.00 0.00 0.00 0.00 0.00 0.00 0.00 0.00 0.00 0.00 0.00 0.00 0.00 0.00 0.00
0.04 0.02 0.01 0.00 0.00 0.00 0.00 0.00 0.00 0.00 0.00 0.00 0.00 0.00 0.00 0.00 0.00 0.00 0.00 0.00 0.00 0.00 0.00 0.00 0.00 0.00 0.00 0.00 0.00 0.00 0.00 0.00 0.00 0.00 0.00 0.00 0.00 0.00 0.00 0.00 0.00 0.00 0.00 0.00
0.08 0.04 0.03 0.02 0.01 0.00 0.00 0.00 0.00 0.00 0.00 0.00 0.00 0.00 0.00 0.00 0.00 0.00 0.00 0.00 0.00 0.00 0.00 0.00 0.00 0.00 0.00 0.00 0.00 0.00 0.00 0.00 0.00 0.00 0.00 0.00 0.00 0.00 0.00 0.00 0.00 0.00 0.00 0.00
0.17 0.12 0.08 0.06 0.03 0.00 0.00 0.00 0.00 0.00 0.00 0.00 0.00 0.00 0.00 0.00 0.00 0.00 0.00 0.00 0.00 0.00 0.00 0.00 0.00 0.00 0.00 0.00 0.00 0.00 0.00 0.00 0.00 0.00 0.00 0.00 0.00 0.00 0.00 0.00 0.00 0.00 0.00 0.00

GEFSNGP_prec_meanprecacc_030.txt.gz
Total_Precipitation_Accumulation
0.00 0.00 0.00 0.00 0.01 0.01 0.01 0.01 0.01 0.02 0.05 0.10 0.16 0.22 0.30 0.41 0.37 0.25 0.15 0.09 0.05 0.04 0.06 0.09 0.09 0.07 0.05 0.04 0.03 0.03 0.02 0.02 0.02 0.02 0.02 0.02 0.02 0.02 0.02 0.02 0.01 0.01 0.00 0.00
0.00 0.00 0.00 0.00 0.00 0.00 0.00 0.01 0.01 0.04 0.10 0.14 0.17 0.21 0.29 0.38 0.36 0.25 0.13 0.06 0.04 0.05 0.08 0.08 0.07 0.05 0.05 0.05 0.05 0.05 0.04 0.04 0.05 0.06 0.06 0.05 0.04 0.03 0.02 0.01 0.00 0.00 0.00 0.00
0.01 0.00 0.01 0.01 0.01 0.01 0.01 0.02 0.04 0.09 0.14 0.16 0.21 0.26 0.30 0.35 0.41 0.35 0.20 0.11 0.10 0.12 0.11 0.09 0.07 0.07 0.08 0.10 0.10 0.09 0.10 0.12 0.12 0.10 0.08 0.05 0.03 0.02 0.01 0.01 0.00 0.01 0.01 0.00
0.01 0.01 0.03 0.03 0.02 0.03 0.04 0.05 0.08 0.09 0.11 0.14 0.19 0.21 0.20 0.21 0.25 0.24 0.18 0.15 0.16 0.16 0.13 0.13 0.14 0.17 0.20 0.20 0.19 0.18 0.18 0.15 0.12 0.08 0.05 0.03 0.02 0.01 0.01 0.01 0.00 0.01 0.01 0.01
0.02 0.03 0.03 0.04 0.02 0.03 0.06 0.09 0.09 0.10 0.10 0.11 0.13 0.13 0.12 0.11 0.13 0.14 0.16 0.20 0.23 0.25 0.26 0.28 0.30 0.31 0.29 0.27 0.23 0.19 0.15 0.11 0.07 0.04 0.03 0.02 0.02 0.01 0.01 0.01 0.01 0.01 0.01 0.01
0.04 0.05 0.07 0.06 0.02 0.03 0.06 0.15 0.09 0.08 0.09 0.10 0.11 0.14 0.09 0.06 0.07 0.08 0.13 0.21 0.29 0.33 0.34 0.35 0.32 0.26 0.23 0.20 0.16 0.12 0.08 0.05 0.03 0.02 0.01 0.01 0.01 0.01 0.01 0.01 0.01 0.01 0.01 0.01
0.09 0.11 0.10 0.04 0.02 0.06 0.13 0.17 0.14 0.13 0.12 0.10 0.08 0.07 0.04 0.02 0.03 0.05 0.09 0.17 0.27 0.33 0.33 0.27 0.19 0.14 0.12 0.10 0.08 0.05 0.03 0.02 0.01 0.01 0.01 0.01 0.01 0.01 0.01 0.01 0.01 0.01 0.01 0.02
0.15 0.19 0.20 0.07 0.04 0.09 0.12 0.10 0.15 0.14 0.10 0.09 0.05 0.02 0.01 0.01 0.02 0.04 0.09 0.17 0.21 0.20 0.16 0.11 0.08 0.06 0.06 0.05 0.03 0.02 0.02 0.02 0.01 0.01 0.00 0.00 0.01 0.01 0.01 0.01 0.01 0.01 0.02 0.02
0.17 0.20 0.16 0.06 0.07 0.08 0.08 0.11 0.10 0.08 0.08 0.07 0.02 0.01 0.01 0.02 0.02 0.04 0.07 0.09 0.08 0.06 0.04 0.04 0.04 0.04 0.04 0.03 0.02 0.02 0.02 0.02 0.01 0.01 0.01 0.01 0.01 0.01 0.01 0.01 0.02 0.02 0.02 0.02
0.04 0.08 0.06 0.05 0.04 0.05 0.06 0.07 0.07 0.07 0.10 0.06 0.02 0.01 0.01 0.02 0.02 0.03 0.03 0.02 0.02 0.02 0.03 0.04 0.03 0.02 0.02 0.01 0.02 0.02 0.02 0.02 0.02 0.02 0.01 0.01 0.01 0.01 0.01 0.02 0.02 0.02 0.02 0.02
0.02 0.04 0.05 0.06 0.05 0.03 0.04 0.04 0.05 0.09 0.11 0.09 0.04 0.02 0.02 0.02 0.02 0.02 0.02 0.02 0.03 0.03 0.04 0.02 0.01 0.01 0.01 0.01 0.02 0.02 0.02 0.02 0.02 0.02 0.02 0.02 0.02 0.01 0.01 0.02 0.01 0.01 0.02 0.02
0.06 0.07 0.10 0.10 0.07 0.04 0.08 0.11 0.11 0.14 0.18 0.12 0.08 0.05 0.04 0.03 0.03 0.03 0.03 0.03 0.03 0.03 0.02 0.01 0.01 0.00 0.00 0.00 0.01 0.02 0.02 0.02 0.01 0.01 0.02 0.02 0.03 0.03 0.01 0.00 0.00 0.01 0.01 0.02
0.05 0.05 0.08 0.09 0.10 0.13 0.17 0.17 0.19 0.21 0.16 0.09 0.07 0.07 0.07 0.06 0.05 0.04 0.03 0.03 0.02 0.01 0.01 0.00 0.00 0.00 0.00 0.00 0.00 0.00 0.01 0.01 0.01 0.01 0.02 0.03 0.03 0.03 0.04 0.03 0.01 0.01 0.01 0.02
0.13 0.15 0.20 0.22 0.23 0.22 0.20 0.17 0.16 0.14 0.11 0.08 0.07 0.07 0.06 0.05 0.03 0.02 0.02 0.01 0.01 0.00 0.00 0.00 0.00 0.00 0.00 0.00 0.00 0.00 0.01 0.01 0.01 0.02 0.02 0.02 0.03 0.03 0.03 0.05 0.05 0.04 0.03 0.02
0.21 0.23 0.25 0.23 0.20 0.19 0.16 0.13 0.11 0.10 0.10 0.09 0.06 0.05 0.04 0.03 0.02 0.02 0.01 0.00 0.00 0.01 0.00 0.00 0.00 0.00 0.00 0.00 0.00 0.00 0.01 0.01 0.01 0.01 0.01 0.01 0.02 0.02 0.03 0.03 0.04 0.03 0.03 0.03
0.16 0.15 0.13 0.13 0.13 0.14 0.14 0.13 0.12 0.11 0.09 0.08 0.06 0.04 0.02 0.01 0.01 0.01 0.00 0.01 0.01 0.01 0.00 0.00 0.00 0.00 0.00 0.00 0.00 0.01 0.01 0.01 0.00 0.00 0.00 0.00 0.01 0.01 0.02 0.03 0.03 0.03 0.03 0.03
0.11 0.11 0.10 0.09 0.10 0.10 0.10 0.09 0.06 0.06 0.06 0.05 0.03 0.01 0.01 0.01 0.01 0.00 0.00 0.00 0.00 0.00 0.00 0.00 0.00 0.00 0.00 0.00 0.00 0.00 0.00 0.00 0.00 0.00 0.00 0.00 0.00 0.00 0.01 0.01 0.02 0.02 0.03 0.04
0.12 0.10 0.08 0.06 0.06 0.05 0.04 0.03 0.02 0.03 0.03 0.02 0.00 0.00 0.00 0.00 0.00 0.00 0.00 0.00 0.00 0.00 0.00 0.00 0.00 0.00 0.00 0.00 0.00 0.00 0.00 0.00 0.00 0.00 0.00 0.00 0.00 0.00 0.00 0.00 0.01 0.01 0.02 0.04
0.10 0.05 0.03 0.03 0.02 0.02 0.02 0.01 0.01 0.01 0.00 0.00 0.00 0.00 0.00 0.00 0.00 0.00 0.00 0.00 0.00 0.00 0.00 0.00 0.00 0.00 0.00 0.00 0.00 0.00 0.00 0.00 0.00 0.00 0.00 0.00 0.00 0.00 0.00 0.00 0.00 0.00 0.01 0.02
0.06 0.02 0.01 0.01 0.01 0.01 0.01 0.00 0.00 0.00 0.00 0.00 0.00 0.00 0.00 0.00 0.00 0.00 0.00 0.00 0.00 0.00 0.00 0.00 0.00 0.00 0.00 0.00 0.00 0.00 0.00 0.00 0.00 0.00 0.00 0.00 0.00 0.00 0.00 0.00 0.00 0.00 0.00 0.01
0.02 0.01 0.00 0.00 0.00 0.00 0.00 0.00 0.00 0.00 0.00 0.00 0.00 0.00 0.00 0.00 0.00 0.00 0.00 0.00 0.00 0.00 0.00 0.00 0.00 0.00 0.00 0.00 0.00 0.00 0.00 0.00 0.00 0.00 0.00 0.00 0.00 0.00 0.00 0.00 0.00 0.00 0.00 0.00
0.02 0.01 0.00 0.00 0.00 0.00 0.00 0.00 0.00 0.00 0.00 0.00 0.00 0.00 0.00 0.00 0.00 0.00 0.00 0.00 0.00 0.00 0.00 0.00 0.00 0.00 0.00 0.00 0.00 0.00 0.00 0.00 0.00 0.00 0.00 0.00 0.00 0.00 0.00 0.00 0.00 0.00 0.00 0.00
0.03 0.01 0.00 0.00 0.00 0.00 0.00 0.00 0.00 0.00 0.00 0.00 0.00 0.00 0.00 0.00 0.00 0.00 0.00 0.00 0.00 0.00 0.00 0.00 0.00 0.00 0.00 0.00 0.00 0.00 0.00 0.00 0.00 0.00 0.00 0.00 0.00 0.00 0.00 0.00 0.00 0.00 0.00 0.00
0.04 0.02 0.01 0.00 0.00 0.00 0.00 0.00 0.00 0.00 0.00 0.00 0.00 0.00 0.00 0.00 0.00 0.00 0.00 0.00 0.00 0.00 0.00 0.00 0.00 0.00 0.00 0.00 0.00 0.00 0.00 0.00 0.00 0.00 0.00 0.00 0.00 0.00 0.00 0.00 0.00 0.00 0.00 0.00
0.04 0.02 0.01 0.00 0.00 0.00 0.00 0.00 0.00 0.00 0.00 0.00 0.00 0.00 0.00 0.00 0.00 0.00 0.00 0.00 0.00 0.00 0.00 0.00 0.00 0.00 0.00 0.00 0.00 0.00 0.00 0.00 0.00 0.00 0.00 0.00 0.00 0.00 0.00 0.00 0.00 0.00 0.00 0.00
0.08 0.05 0.03 0.02 0.01 0.00 0.00 0.00 0.00 0.00 0.00 0.00 0.00 0.00 0.00 0.00 0.00 0.00 0.00 0.00 0.00 0.00 0.00 0.00 0.00 0.00 0.00 0.00 0.00 0.00 0.00 0.00 0.00 0.00 0.00 0.00 0.00 0.00 0.00 0.00 0.00 0.00 0.00 0.00
0.19 0.12 0.08 0.06 0.03 0.00 0.00 0.00 0.00 0.00 0.00 0.00 0.00 0.00 0.00 0.00 0.00 0.00 0.00 0.00 0.00 0.00 0.00 0.00 0.00 0.00 0.00 0.00 0.00 0.00 0.00 0.00 0.00 0.00 0.00 0.00 0.00 0.00 0.00 0.00 0.00 0.00 0.00 0.00

GEFSNGP_prec_meanprecacc_036.txt.gz
Total_Precipitation_Accumulation
0.01 0.01 0.02 0.03 0.02 0.02 0.02 0.02 0.03 0.06 0.17 0.31 0.41 0.47 0.48 0.52 0.44 0.30 0.19 0.13 0.08 0.06 0.08 0.10 0.10 0.07 0.05 0.05 0.04 0.03 0.03 0.02 0.02 0.03 0.03 0.03 0.03 0.02 0.03 0.02 0.02 0.01 0.01 0.00
0.00 0.01 0.01 0.02 0.03 0.03 0.04 0.04 0.05 0.13 0.32 0.49 0.55 0.57 0.56 0.55 0.48 0.33 0.20 0.11 0.08 0.08 0.10 0.10 0.08 0.06 0.06 0.06 0.06 0.05 0.05 0.05 0.06 0.06 0.06 0.05 0.04 0.03 0.02 0.01 0.01 0.01 0.01 0.01
0.01 0.01 0.02 0.05 0.05 0.04 0.05 0.05 0.08 0.20 0.33 0.41 0.48 0.51 0.55 0.57 0.59 0.50 0.31 0.20 0.18 0.19 0.17 0.13 0.11 0.10 0.11 0.11 0.11 0.11 0.11 0.12 0.12 0.11 0.08 0.05 0.03 0.02 0.02 0.01 0.01 0.01 0.01 0.01
0.02 0.04 0.07 0.12 0.06 0.05 0.07 0.11 0.12 0.17 0.23 0.29 0.36 0.38 0.38 0.41 0.48 0.48 0.39 0.34 0.33 0.30 0.27 0.26 0.25 0.25 0.26 0.24 0.22 0.21 0.19 0.17 0.13 0.09 0.06 0.04 0.03 0.02 0.02 0.02 0.02 0.02 0.01 0.01
0.04 0.07 0.13 0.16 0.06 0.05 0.11 0.19 0.16 0.19 0.19 0.20 0.21 0.22 0.22 0.25 0.31 0.37 0.42 0.47 0.48 0.45 0.43 0.41 0.40 0.38 0.34 0.30 0.25 0.21 0.17 0.12 0.08 0.05 0.05 0.04 0.03 0.03 0.02 0.02 0.02 0.01 0.01 0.02
0.08 0.11 0.19 0.20 0.06 0.04 0.10 0.28 0.20 0.19 0.21 0.22 0.25 0.25 0.17 0.17 0.20 0.25 0.31 0.38 0.45 0.47 0.45 0.43 0.37 0.30 0.26 0.22 0.17 0.13 0.09 0.06 0.04 0.04 0.03 0.03 0.03 0.02 0.02 0.02 0.02 0.01 0.01 0.03
0.15 0.19 0.22 0.08 0.03 0.08 0.23 0.34 0.30 0.26 0.25 0.23 0.20 0.18 0.13 0.12 0.14 0.18 0.22 0.27 0.35 0.39 0.36 0.30 0.21 0.16 0.15 0.12 0.10 0.07 0.05 0.04 0.03 0.02 0.02 0.02 0.02 0.02 0.02 0.02 0.03 0.03 0.04 0.05
0.22 0.28 0.32 0.11 0.06 0.15 0.23 0.24 0.27 0.25 0.20 0.15 0.09 0.06 0.06 0.06 0.06 0.07 0.11 0.19 0.23 0.22 0.17 0.13 0.10 0.09 0.10 0.08 0.06 0.05 0.05 0.05 0.03 0.02 0.01 0.01 0.02 0.03 0.03 0.04 0.04 0.04 0.05 0.06
0.23 0.30 0.24 0.10 0.11 0.14 0.15 0.20 0.19 0.16 0.15 0.11 0.04 0.03 0.03 0.04 0.04 0.06 0.08 0.10 0.09 0.07 0.06 0.06 0.06 0.07 0.08 0.07 0.05 0.05 0.06 0.05 0.03 0.02 0.02 0.01 0.02 0.03 0.03 0.04 0.05 0.04 0.05 0.05
0.07 0.16 0.12 0.09 0.07 0.07 0.09 0.13 0.12 0.13 0.16 0.11 0.04 0.02 0.02 0.02 0.03 0.04 0.04 0.03 0.03 0.04 0.05 0.06 0.06 0.05 0.05 0.05 0.05 0.06 0.06 0.05 0.04 0.03 0.03 0.02 0.02 0.01 0.02 0.04 0.04 0.04 0.05 0.05
0.04 0.08 0.09 0.11 0.08 0.05 0.06 0.07 0.09 0.14 0.18 0.15 0.07 0.04 0.03 0.03 0.03 0.03 0.03 0.04 0.05 0.06 0.06 0.04 0.03 0.02 0.02 0.03 0.05 0.06 0.06 0.04 0.04 0.05 0.05 0.04 0.04 0.03 0.02 0.02 0.01 0.01 0.02 0.03
0.09 0.10 0.12 0.13 0.09 0.06 0.11 0.15 0.17 0.21 0.25 0.18 0.11 0.06 0.05 0.05 0.05 0.05 0.05 0.05 0.05 0.05 0.03 0.02 0.01 0.01 0.00 0.01 0.02 0.04 0.05 0.03 0.03 0.03 0.04 0.04 0.06 0.07 0.02 0.00 0.00 0.01 0.01 0.02
0.06 0.05 0.08 0.09 0.11 0.15 0.19 0.21 0.24 0.28 0.24 0.14 0.09 0.09 0.09 0.09 0.07 0.06 0.05 0.04 0.04 0.03 0.01 0.01 0.00 0.00 0.00 0.00 0.00 0.01 0.02 0.02 0.02 0.02 0.03 0.03 0.05 0.07 0.10 0.05 0.01 0.01 0.01 0.02
0.13 0.15 0.20 0.23 0.25 0.24 0.22 0.19 0.19 0.19 0.16 0.11 0.10 0.10 0.09 0.07 0.05 0.04 0.03 0.02 0.01 0.01 0.01 0.00 0.00 0.00 0.00 0.00 0.00 0.00 0.01 0.01 0.01 0.02 0.02 0.02 0.03 0.04 0.07 0.11 0.10 0.08 0.04 0.02
0.21 0.23 0.26 0.23 0.21 0.20 0.17 0.14 0.14 0.13 0.12 0.12 0.10 0.08 0.06 0.05 0.04 0.03 0.01 0.01 0.01 0.01 0.01 0.00 0.00 0.00 0.00 0.00 0.00 0.00 0.01 0.02 0.02 0.01 0.01 0.01 0.02 0.02 0.05 0.06 0.09 0.10 0.08 0.05
0.16 0.15 0.14 0.14 0.14 0.16 0.15 0.15 0.15 0.14 0.13 0.11 0.08 0.05 0.03 0.02 0.01 0.01 0.00 0.01 0.02 0.01 0.00 0.00 0.00 0.00 0.00 0.00 0.00 0.01 0.01 0.01 0.01 0.00 0.01 0.01 0.01 0.01 0.03 0.05 0.06 0.07 0.06 0.04
0.11 0.11 0.11 0.10 0.11 0.11 0.12 0.11 0.09 0.09 0.09 0.08 0.04 0.02 0.01 0.01 0.01 0.01 0.00 0.00 0.01 0.01 0.00 0.00 0.00 0.00 0.00 0.00 0.00 0.00 0.00 0.01 0.00 0.00 0.00 0.00 0.00 0.00 0.01 0.02 0.03 0.04 0.04 0.05
0.12 0.10 0.09 0.07 0.07 0.06 0.06 0.05 0.05 0.05 0.04 0.03 0.01 0.01 0.01 0.01 0.01 0.00 0.00 0.00 0.00 0.00 0.00 0.00 0.00 0.00 0.00 0.00 0.00 0.00 0.00 0.00 0.00 0.00 0.00 0.00 0.00 0.00 0.00 0.01 0.02 0.03 0.03 0.04
0.10 0.06 0.03 0.03 0.03 0.03 0.03 0.03 0.02 0.01 0.01 0.01 0.01 0.01 0.01 0.00 0.00 0.00 0.00 0.00 0.00 0.00 0.00 0.00 0.00 0.00 0.00 0.00 0.00 0.00 0.00 0.00 0.00 0.00 0.00 0.00 0.00 0.00 0.00 0.00 0.01 0.02 0.02 0.03
0.06 0.02 0.01 0.01 0.01 0.01 0.01 0.01 0.00 0.00 0.00 0.00 0.00 0.00 0.00 0.00 0.00 0.00 0.00 0.00 0.00 0.00 0.00 0.00 0.00 0.00 0.00 0.00 0.00 0.00 0.00 0.00 0.00 0.00 0.00 0.00 0.00 0.00 0.00 0.00 0.01 0.01 0.01 0.02
0.02 0.01 0.01 0.01 0.01 0.00 0.00 0.00 0.00 0.00 0.00 0.00 0.00 0.00 0.00 0.00 0.00 0.00 0.00 0.00 0.00 0.00 0.00 0.00 0.00 0.00 0.00 0.00 0.00 0.00 0.00 0.00 0.00 0.00 0.00 0.00 0.00 0.00 0.00 0.00 0.00 0.00 0.01 0.02
0.02 0.01 0.00 0.00 0.00 0.00 0.00 0.00 0.00 0.00 0.00 0.00 0.00 0.00 0.00 0.00 0.00 0.00 0.00 0.00 0.00 0.00 0.00 0.00 0.00 0.00 0.00 0.00 0.00 0.00 0.00 0.00 0.00 0.00 0.00 0.00 0.00 0.00 0.00 0.00 0.00 0.00 0.00 0.01
0.03 0.01 0.01 0.00 0.00 0.00 0.00 0.00 0.00 0.00 0.00 0.00 0.00 0.00 0.00 0.00 0.00 0.00 0.00 0.00 0.00 0.00 0.00 0.00 0.00 0.00 0.00 0.00 0.00 0.00 0.00 0.00 0.00 0.00 0.00 0.00 0.00 0.00 0.00 0.00 0.00 0.00 0.00 0.01
0.04 0.02 0.01 0.01 0.00 0.00 0.00 0.00 0.00 0.00 0.00 0.00 0.00 0.00 0.00 0.00 0.00 0.00 0.00 0.00 0.00 0.00 0.00 0.00 0.00 0.00 0.00 0.00 0.00 0.00 0.00 0.00 0.00 0.00 0.00 0.00 0.00 0.00 0.00 0.00 0.00 0.00 0.00 0.00
0.05 0.02 0.01 0.01 0.01 0.00 0.00 0.00 0.00 0.00 0.00 0.00 0.00 0.00 0.00 0.00 0.00 0.00 0.00 0.00 0.00 0.00 0.00 0.00 0.00 0.00 0.00 0.00 0.00 0.00 0.00 0.00 0.00 0.00 0.00 0.00 0.00 0.00 0.00 0.00 0.00 0.00 0.00 0.00
0.10 0.05 0.03 0.02 0.01 0.00 0.00 0.00 0.00 0.00 0.00 0.00 0.00 0.00 0.00 0.00 0.00 0.00 0.00 0.00 0.00 0.00 0.00 0.00 0.00 0.00 0.00 0.00 0.00 0.00 0.00 0.00 0.00 0.00 0.00 0.00 0.00 0.00 0.00 0.00 0.00 0.00 0.00 0.00
0.23 0.15 0.10 0.06 0.03 0.00 0.00 0.00 0.00 0.00 0.00 0.00 0.00 0.00 0.00 0.00 0.00 0.00 0.00 0.00 0.00 0.00 0.00 0.00 0.00 0.00 0.00 0.00 0.00 0.00 0.00 0.00 0.00 0.00 0.00 0.00 0.00 0.00 0.00 0.00 0.00 0.00 0.00 0.00

GEFSNGP_prec_meanprecacc_042.txt.gz
Total_Precipitation_Accumulation
0.03 0.04 0.03 0.04 0.03 0.03 0.03 0.04 0.08 0.15 0.28 0.48 0.68 0.82 0.86 0.92 0.81 0.61 0.45 0.33 0.23 0.17 0.15 0.15 0.14 0.11 0.08 0.08 0.07 0.06 0.06 0.06 0.06 0.05 0.05 0.04 0.04 0.03 0.03 0.03 0.02 0.01 0.01 0.00
0.02 0.03 0.04 0.06 0.06 0.06 0.09 0.12 0.18 0.29 0.50 0.73 0.83 0.88 0.92 0.95 0.84 0.65 0.47 0.35 0.29 0.26 0.23 0.20 0.17 0.14 0.12 0.11 0.11 0.09 0.08 0.08 0.08 0.08 0.07 0.06 0.05 0.04 0.02 0.01 0.01 0.01 0.01 0.01
0.03 0.03 0.07 0.15 0.16 0.18 0.20 0.21 0.24 0.37 0.54 0.66 0.70 0.71 0.77 0.83 0.87 0.79 0.58 0.47 0.45 0.44 0.39 0.33 0.28 0.24 0.22 0.21 0.18 0.16 0.16 0.17 0.16 0.13 0.10 0.07 0.04 0.03 0.02 0.02 0.02 0.01 0.01 0.01
0.03 0.06 0.13 0.19 0.13 0.17 0.21 0.24 0.27 0.31 0.38 0.46 0.50 0.51 0.52 0.59 0.67 0.70 0.64 0.63 0.65 0.60 0.53 0.48 0.44 0.41 0.37 0.34 0.30 0.26 0.24 0.20 0.15 0.10 0.07 0.05 0.04 0.03 0.02 0.02 0.02 0.02 0.01 0.02
0.06 0.12 0.21 0.23 0.11 0.09 0.18 0.27 0.25 0.29 0.29 0.29 0.29 0.30 0.32 0.37 0.42 0.48 0.55 0.61 0.63 0.59 0.55 0.52 0.49 0.44 0.39 0.34 0.28 0.23 0.18 0.13 0.08 0.06 0.05 0.05 0.04 0.03 0.02 0.02 0.02 0.02 0.02 0.02
0.09 0.14 0.25 0.26 0.10 0.06 0.13 0.35 0.30 0.27 0.30 0.31 0.32 0.29 0.21 0.21 0.25 0.30 0.37 0.44 0.51 0.53 0.50 0.47 0.41 0.32 0.28 0.24 0.19 0.14 0.09 0.06 0.05 0.04 0.03 0.03 0.03 0.02 0.02 0.02 0.02 0.02 0.02 0.03
0.17 0.23 0.28 0.11 0.05 0.10 0.27 0.39 0.38 0.34 0.32 0.30 0.25 0.20 0.14 0.14 0.16 0.20 0.25 0.30 0.38 0.41 0.39 0.32 0.23 0.18 0.16 0.14 0.11 0.08 0.05 0.04 0.04 0.03 0.03 0.02 0.02 0.02 0.02 0.03 0.03 0.03 0.04 0.05
0.24 0.31 0.35 0.12 0.07 0.17 0.25 0.27 0.30 0.29 0.24 0.19 0.13 0.09 0.09 0.09 0.09 0.09 0.13 0.21 0.25 0.23 0.18 0.14 0.11 0.10 0.10 0.09 0.07 0.05 0.05 0.05 0.04 0.03 0.02 0.02 0.03 0.04 0.03 0.04 0.04 0.05 0.05 0.06
0.24 0.32 0.27 0.11 0.11 0.15 0.16 0.21 0.19 0.17 0.16 0.12 0.05 0.04 0.04 0.05 0.06 0.07 0.09 0.11 0.10 0.08 0.07 0.07 0.07 0.08 0.08 0.07 0.06 0.06 0.07 0.06 0.03 0.02 0.02 0.02 0.02 0.03 0.03 0.05 0.05 0.04 0.05 0.05
0.09 0.18 0.14 0.09 0.07 0.08 0.10 0.14 0.12 0.13 0.17 0.12 0.05 0.03 0.02 0.03 0.04 0.04 0.04 0.04 0.04 0.04 0.05 0.06 0.06 0.06 0.06 0.05 0.06 0.06 0.07 0.06 0.04 0.04 0.04 0.03 0.02 0.02 0.03 0.04 0.04 0.04 0.05 0.05
0.05 0.10 0.11 0.12 0.08 0.05 0.07 0.08 0.10 0.15 0.21 0.17 0.08 0.05 0.04 0.04 0.04 0.03 0.04 0.04 0.05 0.06 0.06 0.04 0.04 0.03 0.03 0.03 0.05 0.07 0.07 0.05 0.05 0.05 0.05 0.05 0.05 0.04 0.02 0.03 0.01 0.01 0.02 0.03
0.10 0.11 0.13 0.14 0.09 0.06 0.11 0.16 0.18 0.23 0.28 0.20 0.11 0.07 0.06 0.06 0.06 0.06 0.06 0.06 0.06 0.05 0.03 0.02 0.01 0.01 0.01 0.01 0.02 0.05 0.05 0.04 0.03 0.04 0.04 0.06 0.09 0.09 0.03 0.01 0.01 0.01 0.01 0.02
0.06 0.05 0.08 0.10 0.11 0.15 0.20 0.22 0.26 0.30 0.25 0.15 0.10 0.09 0.10 0.09 0.08 0.06 0.05 0.04 0.04 0.03 0.01 0.01 0.00 0.00 0.00 0.00 0.00 0.01 0.02 0.02 0.02 0.03 0.04 0.05 0.07 0.10 0.12 0.06 0.02 0.01 0.01 0.02
0.13 0.15 0.20 0.24 0.25 0.25 0.23 0.20 0.21 0.21 0.17 0.12 0.10 0.11 0.10 0.08 0.05 0.04 0.04 0.02 0.02 0.01 0.01 0.00 0.00 0.00 0.00 0.00 0.00 0.00 0.01 0.01 0.01 0.03 0.03 0.04 0.05 0.06 0.09 0.12 0.10 0.08 0.04 0.02
0.21 0.23 0.26 0.24 0.22 0.21 0.18 0.15 0.15 0.15 0.13 0.13 0.10 0.09 0.07 0.05 0.04 0.03 0.01 0.01 0.01 0.01 0.01 0.00 0.00 0.00 0.00 0.00 0.00 0.00 0.01 0.03 0.02 0.02 0.02 0.02 0.03 0.04 0.05 0.07 0.09 0.10 0.08 0.05
0.16 0.15 0.14 0.14 0.15 0.16 0.16 0.15 0.16 0.16 0.14 0.12 0.09 0.06 0.03 0.02 0.02 0.01 0.00 0.01 0.02 0.01 0.00 0.00 0.00 0.00 0.00 0.00 0.00 0.01 0.02 0.02 0.01 0.01 0.01 0.01 0.01 0.02 0.03 0.05 0.06 0.07 0.06 0.05
0.11 0.11 0.11 0.10 0.11 0.12 0.12 0.11 0.10 0.10 0.09 0.08 0.05 0.02 0.01 0.01 0.01 0.01 0.00 0.00 0.01 0.01 0.00 0.00 0.00 0.00 0.00 0.00 0.00 0.00 0.00 0.01 0.00 0.00 0.00 0.00 0.00 0.00 0.01 0.02 0.03 0.04 0.04 0.05
0.12 0.10 0.09 0.07 0.07 0.06 0.06 0.06 0.05 0.05 0.04 0.03 0.01 0.01 0.01 0.01 0.01 0.00 0.00 0.00 0.00 0.00 0.00 0.00 0.00 0.00 0.00 0.00 0.00 0.00 0.00 0.00 0.00 0.00 0.00 0.00 0.00 0.00 0.00 0.01 0.02 0.03 0.03 0.05
0.10 0.06 0.04 0.03 0.03 0.03 0.03 0.03 0.03 0.02 0.01 0.01 0.01 0.01 0.01 0.00 0.00 0.00 0.00 0.00 0.00 0.00 0.00 0.00 0.00 0.00 0.00 0.00 0.00 0.00 0.00 0.00 0.00 0.00 0.00 0.00 0.00 0.00 0.00 0.00 0.01 0.02 0.02 0.03
0.06 0.02 0.01 0.01 0.01 0.02 0.01 0.01 0.01 0.00 0.00 0.00 0.00 0.00 0.00 0.00 0.00 0.00 0.00 0.00 0.00 0.00 0.00 0.00 0.00 0.00 0.00 0.00 0.00 0.00 0.00 0.00 0.00 0.00 0.00 0.00 0.00 0.00 0.00 0.00 0.01 0.01 0.02 0.02
0.02 0.01 0.01 0.01 0.01 0.00 0.00 0.00 0.00 0.00 0.00 0.00 0.00 0.00 0.00 0.00 0.00 0.00 0.00 0.00 0.00 0.00 0.00 0.00 0.00 0.00 0.00 0.00 0.00 0.00 0.00 0.00 0.00 0.00 0.00 0.00 0.00 0.00 0.00 0.00 0.00 0.00 0.01 0.02
0.02 0.01 0.01 0.00 0.00 0.00 0.00 0.00 0.00 0.00 0.00 0.00 0.00 0.00 0.00 0.00 0.00 0.00 0.00 0.00 0.00 0.00 0.00 0.00 0.00 0.00 0.00 0.00 0.00 0.00 0.00 0.00 0.00 0.00 0.00 0.00 0.00 0.00 0.00 0.00 0.00 0.00 0.01 0.01
0.03 0.01 0.01 0.00 0.00 0.00 0.00 0.00 0.00 0.00 0.00 0.00 0.00 0.00 0.00 0.00 0.00 0.00 0.00 0.00 0.00 0.00 0.00 0.00 0.00 0.00 0.00 0.00 0.00 0.00 0.00 0.00 0.00 0.00 0.00 0.00 0.00 0.00 0.00 0.00 0.00 0.00 0.00 0.01
0.04 0.02 0.01 0.01 0.00 0.00 0.00 0.00 0.00 0.00 0.00 0.00 0.00 0.00 0.00 0.00 0.00 0.00 0.00 0.00 0.00 0.00 0.00 0.00 0.00 0.00 0.00 0.00 0.00 0.00 0.00 0.00 0.00 0.00 0.00 0.00 0.00 0.00 0.00 0.00 0.00 0.00 0.00 0.00
0.05 0.02 0.01 0.01 0.01 0.00 0.00 0.00 0.00 0.00 0.00 0.00 0.00 0.00 0.00 0.00 0.00 0.00 0.00 0.00 0.00 0.00 0.00 0.00 0.00 0.00 0.00 0.00 0.00 0.00 0.00 0.00 0.00 0.00 0.00 0.00 0.00 0.00 0.00 0.00 0.00 0.00 0.00 0.00
0.10 0.05 0.03 0.02 0.01 0.00 0.00 0.00 0.00 0.00 0.00 0.00 0.00 0.00 0.00 0.00 0.00 0.00 0.00 0.00 0.00 0.00 0.00 0.00 0.00 0.00 0.00 0.00 0.00 0.00 0.00 0.00 0.00 0.00 0.00 0.00 0.00 0.00 0.00 0.00 0.00 0.00 0.00 0.00
0.24 0.15 0.10 0.07 0.03 0.00 0.00 0.00 0.00 0.00 0.00 0.00 0.00 0.00 0.00 0.00 0.00 0.00 0.00 0.00 0.00 0.00 0.00 0.00 0.00 0.00 0.00 0.00 0.00 0.00 0.00 0.00 0.00 0.00 0.00 0.00 0.00 0.00 0.00 0.00 0.00 0.00 0.00 0.00

GEFSNGP_prec_meanprecacc_048.txt.gz
Total_Precipitation_Accumulation
0.04 0.05 0.04 0.04 0.04 0.03 0.04 0.05 0.11 0.19 0.33 0.53 0.75 0.89 0.92 1.00 0.91 0.74 0.62 0.53 0.44 0.37 0.33 0.31 0.27 0.24 0.21 0.21 0.18 0.14 0.12 0.11 0.11 0.09 0.08 0.08 0.07 0.08 0.08 0.08 0.06 0.05 0.03 0.02
0.04 0.04 0.05 0.06 0.07 0.08 0.11 0.16 0.22 0.35 0.54 0.80 0.91 0.95 1.00 1.04 0.96 0.79 0.62 0.50 0.46 0.44 0.42 0.37 0.31 0.27 0.24 0.21 0.20 0.16 0.13 0.12 0.12 0.12 0.11 0.10 0.08 0.07 0.06 0.05 0.03 0.02 0.01 0.01
0.03 0.04 0.08 0.16 0.17 0.19 0.23 0.25 0.30 0.45 0.63 0.76 0.82 0.82 0.88 0.94 0.97 0.88 0.69 0.58 0.58 0.61 0.59 0.52 0.43 0.37 0.33 0.30 0.25 0.22 0.21 0.21 0.19 0.16 0.12 0.09 0.06 0.04 0.03 0.02 0.02 0.02 0.01 0.01
0.04 0.07 0.14 0.20 0.14 0.19 0.23 0.27 0.31 0.36 0.48 0.57 0.62 0.62 0.64 0.72 0.80 0.82 0.76 0.75 0.78 0.74 0.66 0.59 0.54 0.48 0.44 0.39 0.35 0.32 0.29 0.24 0.18 0.12 0.08 0.06 0.05 0.04 0.03 0.02 0.02 0.02 0.01 0.02
0.06 0.12 0.22 0.26 0.14 0.12 0.21 0.30 0.28 0.32 0.34 0.33 0.33 0.35 0.40 0.49 0.56 0.62 0.69 0.74 0.74 0.70 0.64 0.58 0.53 0.48 0.42 0.37 0.32 0.26 0.20 0.14 0.10 0.07 0.06 0.05 0.05 0.04 0.03 0.02 0.02 0.02 0.02 0.02
0.09 0.15 0.25 0.27 0.12 0.08 0.16 0.37 0.33 0.30 0.32 0.33 0.34 0.32 0.26 0.29 0.34 0.39 0.45 0.51 0.58 0.59 0.55 0.51 0.44 0.35 0.30 0.25 0.20 0.15 0.10 0.07 0.05 0.04 0.03 0.03 0.03 0.02 0.02 0.02 0.02 0.02 0.02 0.03
0.17 0.23 0.28 0.12 0.05 0.12 0.29 0.41 0.41 0.37 0.35 0.32 0.28 0.22 0.16 0.17 0.19 0.23 0.28 0.35 0.43 0.46 0.42 0.35 0.26 0.19 0.17 0.14 0.12 0.08 0.05 0.04 0.04 0.03 0.03 0.02 0.02 0.02 0.02 0.03 0.03 0.03 0.04 0.05
0.24 0.31 0.35 0.12 0.07 0.18 0.26 0.27 0.32 0.30 0.26 0.21 0.14 0.10 0.11 0.12 0.11 0.11 0.15 0.23 0.28 0.26 0.20 0.15 0.12 0.11 0.11 0.09 0.07 0.05 0.05 0.05 0.04 0.03 0.02 0.02 0.03 0.04 0.03 0.04 0.04 0.05 0.06 0.06
0.24 0.32 0.27 0.11 0.11 0.15 0.16 0.21 0.20 0.17 0.16 0.12 0.06 0.05 0.06 0.07 0.08 0.09 0.11 0.14 0.14 0.10 0.07 0.07 0.08 0.08 0.09 0.07 0.06 0.06 0.07 0.06 0.03 0.02 0.02 0.02 0.02 0.03 0.03 0.05 0.05 0.04 0.05 0.05
0.09 0.18 0.14 0.09 0.07 0.08 0.10 0.14 0.12 0.14 0.17 0.12 0.05 0.03 0.03 0.03 0.04 0.05 0.06 0.06 0.06 0.05 0.06 0.07 0.06 0.06 0.06 0.05 0.06 0.06 0.07 0.06 0.04 0.04 0.04 0.03 0.02 0.02 0.03 0.04 0.04 0.04 0.05 0.05
0.05 0.10 0.11 0.12 0.08 0.05 0.07 0.08 0.10 0.15 0.21 0.17 0.08 0.05 0.04 0.04 0.04 0.04 0.05 0.06 0.06 0.06 0.06 0.05 0.04 0.03 0.03 0.03 0.05 0.07 0.07 0.05 0.05 0.05 0.05 0.05 0.05 0.04 0.02 0.03 0.01 0.02 0.03 0.03
0.10 0.11 0.13 0.14 0.09 0.06 0.11 0.16 0.18 0.23 0.28 0.20 0.11 0.07 0.06 0.06 0.06 0.06 0.06 0.06 0.06 0.05 0.03 0.02 0.01 0.01 0.01 0.01 0.02 0.05 0.05 0.04 0.03 0.04 0.04 0.06 0.09 0.09 0.03 0.01 0.01 0.01 0.01 0.02
0.06 0.05 0.08 0.10 0.11 0.15 0.20 0.22 0.26 0.30 0.26 0.15 0.10 0.10 0.10 0.10 0.08 0.06 0.05 0.04 0.04 0.03 0.02 0.01 0.00 0.00 0.00 0.00 0.00 0.01 0.02 0.02 0.02 0.03 0.04 0.05 0.07 0.10 0.12 0.06 0.02 0.01 0.01 0.02
0.13 0.15 0.20 0.24 0.25 0.25 0.23 0.20 0.21 0.21 0.17 0.12 0.11 0.11 0.10 0.08 0.05 0.04 0.04 0.02 0.02 0.01 0.01 0.00 0.00 0.00 0.00 0.00 0.00 0.00 0.01 0.01 0.02 0.03 0.04 0.04 0.05 0.06 0.09 0.12 0.11 0.08 0.04 0.03
0.21 0.23 0.26 0.24 0.22 0.21 0.18 0.15 0.15 0.16 0.14 0.13 0.11 0.09 0.07 0.05 0.04 0.03 0.01 0.01 0.01 0.01 0.01 0.00 0.00 0.00 0.00 0.00 0.00 0.00 0.01 0.03 0.02 0.02 0.02 0.02 0.03 0.04 0.05 0.07 0.09 0.10 0.08 0.05
0.16 0.15 0.14 0.14 0.15 0.16 0.16 0.16 0.16 0.16 0.14 0.12 0.09 0.06 0.03 0.02 0.02 0.01 0.00 0.01 0.02 0.01 0.00 0.00 0.00 0.00 0.00 0.00 0.00 0.01 0.02 0.02 0.01 0.01 0.01 0.01 0.01 0.02 0.03 0.05 0.06 0.07 0.07 0.05
0.11 0.11 0.11 0.10 0.11 0.12 0.12 0.11 0.10 0.10 0.09 0.08 0.05 0.02 0.01 0.01 0.01 0.01 0.00 0.00 0.01 0.01 0.00 0.00 0.00 0.00 0.00 0.00 0.00 0.00 0.00 0.01 0.00 0.00 0.00 0.00 0.00 0.00 0.01 0.02 0.03 0.04 0.05 0.06
0.12 0.10 0.09 0.07 0.07 0.06 0.06 0.06 0.05 0.05 0.04 0.03 0.01 0.01 0.01 0.01 0.01 0.00 0.00 0.00 0.00 0.00 0.00 0.00 0.00 0.00 0.00 0.00 0.00 0.00 0.00 0.00 0.00 0.00 0.00 0.00 0.00 0.00 0.00 0.01 0.02 0.03 0.04 0.05
0.10 0.06 0.04 0.03 0.03 0.03 0.03 0.03 0.03 0.02 0.01 0.01 0.01 0.01 0.01 0.00 0.00 0.00 0.00 0.00 0.00 0.00 0.00 0.00 0.00 0.00 0.00 0.00 0.00 0.00 0.00 0.00 0.00 0.00 0.00 0.00 0.00 0.00 0.00 0.00 0.01 0.02 0.02 0.03
0.06 0.02 0.01 0.01 0.01 0.02 0.01 0.01 0.01 0.00 0.00 0.00 0.00 0.00 0.00 0.00 0.00 0.00 0.00 0.00 0.00 0.00 0.00 0.00 0.00 0.00 0.00 0.00 0.00 0.00 0.00 0.00 0.00 0.00 0.00 0.00 0.00 0.00 0.00 0.00 0.01 0.01 0.02 0.02
0.02 0.01 0.01 0.01 0.01 0.00 0.00 0.00 0.00 0.00 0.00 0.00 0.00 0.00 0.00 0.00 0.00 0.00 0.00 0.00 0.00 0.00 0.00 0.00 0.00 0.00 0.00 0.00 0.00 0.00 0.00 0.00 0.00 0.00 0.00 0.00 0.00 0.00 0.00 0.00 0.00 0.01 0.01 0.02
0.02 0.01 0.01 0.00 0.00 0.00 0.00 0.00 0.00 0.00 0.00 0.00 0.00 0.00 0.00 0.00 0.00 0.00 0.00 0.00 0.00 0.00 0.00 0.00 0.00 0.00 0.00 0.00 0.00 0.00 0.00 0.00 0.00 0.00 0.00 0.00 0.00 0.00 0.00 0.00 0.00 0.00 0.01 0.01
0.03 0.01 0.01 0.00 0.00 0.00 0.00 0.00 0.00 0.00 0.00 0.00 0.00 0.00 0.00 0.00 0.00 0.00 0.00 0.00 0.00 0.00 0.00 0.00 0.00 0.00 0.00 0.00 0.00 0.00 0.00 0.00 0.00 0.00 0.00 0.00 0.00 0.00 0.00 0.00 0.00 0.00 0.00 0.01
0.04 0.02 0.01 0.01 0.00 0.00 0.00 0.00 0.00 0.00 0.00 0.00 0.00 0.00 0.00 0.00 0.00 0.00 0.00 0.00 0.00 0.00 0.00 0.00 0.00 0.00 0.00 0.00 0.00 0.00 0.00 0.00 0.00 0.00 0.00 0.00 0.00 0.00 0.00 0.00 0.00 0.00 0.00 0.00
0.05 0.02 0.01 0.01 0.01 0.00 0.00 0.00 0.00 0.00 0.00 0.00 0.00 0.00 0.00 0.00 0.00 0.00 0.00 0.00 0.00 0.00 0.00 0.00 0.00 0.00 0.00 0.00 0.00 0.00 0.00 0.00 0.00 0.00 0.00 0.00 0.00 0.00 0.00 0.00 0.00 0.00 0.00 0.00
0.10 0.05 0.03 0.02 0.01 0.00 0.00 0.00 0.00 0.00 0.00 0.00 0.00 0.00 0.00 0.00 0.00 0.00 0.00 0.00 0.00 0.00 0.00 0.00 0.00 0.00 0.00 0.00 0.00 0.00 0.00 0.00 0.00 0.00 0.00 0.00 0.00 0.00 0.00 0.00 0.00 0.00 0.00 0.00
0.24 0.15 0.10 0.07 0.03 0.00 0.00 0.00 0.00 0.00 0.00 0.00 0.00 0.00 0.00 0.00 0.00 0.00 0.00 0.00 0.00 0.00 0.00 0.00 0.00 0.00 0.00 0.00 0.00 0.00 0.00 0.00 0.00 0.00 0.00 0.00 0.00 0.00 0.00 0.00 0.00 0.00 0.00 0.00

GEFSNGP_prec_meanprecacc_054.txt.gz
Total_Precipitation_Accumulation
0.05 0.06 0.05 0.06 0.04 0.04 0.05 0.06 0.13 0.22 0.36 0.57 0.79 0.93 0.96 1.03 0.94 0.77 0.65 0.56 0.47 0.39 0.35 0.33 0.30 0.27 0.25 0.26 0.25 0.22 0.20 0.20 0.19 0.17 0.15 0.14 0.13 0.12 0.11 0.11 0.09 0.07 0.05 0.04
0.05 0.06 0.06 0.08 0.08 0.09 0.13 0.17 0.26 0.38 0.57 0.84 0.96 1.01 1.06 1.11 1.02 0.85 0.68 0.55 0.52 0.49 0.45 0.40 0.34 0.30 0.27 0.25 0.24 0.22 0.19 0.17 0.16 0.15 0.14 0.12 0.10 0.09 0.07 0.06 0.04 0.03 0.02 0.01
0.06 0.06 0.10 0.19 0.18 0.20 0.24 0.27 0.34 0.50 0.68 0.84 0.91 0.91 0.98 1.05 1.09 0.99 0.80 0.70 0.69 0.71 0.66 0.57 0.48 0.40 0.36 0.33 0.28 0.24 0.23 0.23 0.21 0.18 0.14 0.10 0.07 0.05 0.04 0.03 0.02 0.02 0.01 0.01
0.06 0.09 0.17 0.23 0.16 0.20 0.25 0.30 0.34 0.40 0.52 0.63 0.70 0.71 0.76 0.85 0.94 0.95 0.89 0.89 0.92 0.86 0.78 0.69 0.60 0.52 0.46 0.41 0.36 0.33 0.30 0.25 0.19 0.13 0.09 0.06 0.05 0.04 0.03 0.02 0.02 0.02 0.02 0.02
0.07 0.14 0.24 0.28 0.16 0.14 0.25 0.33 0.31 0.35 0.37 0.39 0.39 0.42 0.53 0.63 0.69 0.74 0.80 0.85 0.85 0.80 0.74 0.68 0.60 0.51 0.44 0.39 0.33 0.27 0.21 0.15 0.11 0.07 0.06 0.05 0.05 0.04 0.03 0.02 0.02 0.02 0.02 0.02
0.10 0.16 0.28 0.29 0.12 0.09 0.21 0.43 0.37 0.33 0.35 0.37 0.42 0.41 0.36 0.40 0.45 0.51 0.56 0.62 0.67 0.66 0.61 0.57 0.48 0.37 0.31 0.27 0.21 0.16 0.11 0.07 0.05 0.04 0.04 0.03 0.03 0.03 0.02 0.02 0.02 0.02 0.02 0.03
0.17 0.24 0.30 0.12 0.06 0.15 0.36 0.49 0.47 0.42 0.39 0.37 0.35 0.32 0.26 0.25 0.27 0.32 0.38 0.44 0.49 0.51 0.48 0.39 0.29 0.22 0.19 0.16 0.13 0.09 0.05 0.04 0.04 0.03 0.03 0.02 0.03 0.03 0.03 0.03 0.04 0.04 0.04 0.06
0.24 0.32 0.36 0.12 0.08 0.21 0.29 0.30 0.38 0.35 0.31 0.25 0.17 0.14 0.16 0.16 0.14 0.15 0.19 0.27 0.32 0.29 0.22 0.17 0.13 0.12 0.12 0.11 0.08 0.06 0.05 0.06 0.04 0.03 0.02 0.03 0.04 0.04 0.04 0.04 0.05 0.05 0.06 0.07
0.24 0.32 0.27 0.11 0.12 0.15 0.16 0.22 0.22 0.20 0.19 0.13 0.07 0.07 0.08 0.09 0.10 0.11 0.13 0.16 0.16 0.13 0.09 0.09 0.09 0.10 0.10 0.08 0.07 0.07 0.07 0.06 0.04 0.02 0.03 0.02 0.03 0.03 0.04 0.05 0.05 0.05 0.05 0.06
0.09 0.18 0.14 0.09 0.07 0.09 0.10 0.14 0.14 0.16 0.19 0.13 0.06 0.04 0.04 0.05 0.06 0.07 0.07 0.08 0.08 0.08 0.08 0.09 0.08 0.07 0.07 0.06 0.06 0.07 0.08 0.06 0.04 0.04 0.04 0.03 0.03 0.02 0.03 0.05 0.04 0.05 0.06 0.05
0.05 0.10 0.11 0.12 0.08 0.05 0.07 0.08 0.11 0.16 0.22 0.18 0.08 0.05 0.04 0.05 0.05 0.05 0.06 0.07 0.08 0.08 0.08 0.05 0.04 0.04 0.03 0.04 0.06 0.08 0.07 0.05 0.05 0.06 0.05 0.05 0.06 0.04 0.02 0.03 0.01 0.02 0.03 0.03
0.10 0.11 0.13 0.14 0.09 0.06 0.11 0.16 0.19 0.24 0.29 0.20 0.12 0.07 0.06 0.06 0.06 0.07 0.07 0.07 0.06 0.06 0.04 0.03 0.02 0.01 0.01 0.02 0.03 0.06 0.06 0.04 0.04 0.04 0.05 0.06 0.09 0.09 0.04 0.01 0.01 0.01 0.01 0.02
0.06 0.05 0.08 0.10 0.11 0.15 0.20 0.22 0.26 0.31 0.26 0.15 0.10 0.10 0.10 0.10 0.09 0.07 0.05 0.05 0.05 0.03 0.02 0.01 0.01 0.00 0.00 0.00 0.01 0.02 0.03 0.03 0.03 0.03 0.04 0.06 0.08 0.10 0.12 0.07 0.02 0.01 0.01 0.02
0.13 0.15 0.20 0.24 0.25 0.25 0.23 0.20 0.21 0.21 0.17 0.13 0.11 0.12 0.10 0.08 0.06 0.05 0.04 0.03 0.02 0.01 0.01 0.00 0.00 0.00 0.00 0.00 0.00 0.00 0.01 0.01 0.02 0.03 0.04 0.04 0.05 0.06 0.09 0.12 0.11 0.09 0.04 0.03
0.21 0.23 0.26 0.24 0.22 0.21 0.18 0.16 0.16 0.16 0.14 0.14 0.11 0.09 0.07 0.05 0.05 0.03 0.02 0.01 0.01 0.01 0.01 0.00 0.00 0.00 0.00 0.00 0.00 0.01 0.02 0.03 0.02 0.02 0.02 0.02 0.03 0.04 0.05 0.07 0.10 0.11 0.10 0.06
0.16 0.15 0.14 0.14 0.15 0.16 0.16 0.16 0.16 0.16 0.15 0.12 0.09 0.06 0.04 0.02 0.02 0.01 0.01 0.01 0.02 0.01 0.00 0.00 0.00 0.00 0.00 0.00 0.00 0.01 0.02 0.02 0.01 0.01 0.01 0.01 0.01 0.02 0.03 0.05 0.06 0.08 0.08 0.06
0.11 0.11 0.11 0.10 0.11 0.12 0.12 0.12 0.10 0.10 0.09 0.08 0.05 0.02 0.01 0.01 0.01 0.01 0.00 0.00 0.01 0.01 0.00 0.00 0.00 0.00 0.00 0.00 0.00 0.00 0.00 0.01 0.00 0.00 0.00 0.00 0.00 0.00 0.02 0.03 0.04 0.05 0.05 0.06
0.12 0.10 0.09 0.07 0.07 0.06 0.06 0.06 0.06 0.05 0.04 0.03 0.01 0.01 0.01 0.01 0.01 0.00 0.00 0.00 0.00 0.00 0.00 0.00 0.00 0.00 0.00 0.00 0.00 0.00 0.00 0.00 0.00 0.00 0.00 0.00 0.00 0.00 0.00 0.01 0.02 0.03 0.04 0.05
0.10 0.06 0.04 0.03 0.03 0.03 0.03 0.04 0.03 0.02 0.01 0.01 0.01 0.01 0.01 0.00 0.00 0.00 0.00 0.00 0.00 0.00 0.00 0.00 0.00 0.00 0.00 0.00 0.00 0.00 0.00 0.00 0.00 0.00 0.00 0.00 0.00 0.00 0.00 0.01 0.02 0.02 0.03 0.04
0.06 0.02 0.01 0.01 0.01 0.02 0.02 0.01 0.01 0.00 0.00 0.00 0.00 0.00 0.00 0.00 0.00 0.00 0.00 0.00 0.00 0.00 0.00 0.00 0.00 0.00 0.00 0.00 0.00 0.00 0.00 0.00 0.00 0.00 0.00 0.00 0.00 0.00 0.00 0.00 0.01 0.02 0.02 0.03
0.02 0.01 0.01 0.01 0.01 0.01 0.00 0.00 0.00 0.00 0.00 0.00 0.00 0.00 0.00 0.00 0.00 0.00 0.00 0.00 0.00 0.00 0.00 0.00 0.00 0.00 0.00 0.00 0.00 0.00 0.00 0.00 0.00 0.00 0.00 0.00 0.00 0.00 0.00 0.00 0.00 0.01 0.02 0.02
0.02 0.01 0.01 0.00 0.00 0.00 0.00 0.00 0.00 0.00 0.00 0.00 0.00 0.00 0.00 0.00 0.00 0.00 0.00 0.00 0.00 0.00 0.00 0.00 0.00 0.00 0.00 0.00 0.00 0.00 0.00 0.00 0.00 0.00 0.00 0.00 0.00 0.00 0.00 0.00 0.00 0.00 0.01 0.02
0.03 0.01 0.01 0.00 0.00 0.00 0.00 0.00 0.00 0.00 0.00 0.00 0.00 0.00 0.00 0.00 0.00 0.00 0.00 0.00 0.00 0.00 0.00 0.00 0.00 0.00 0.00 0.00 0.00 0.00 0.00 0.00 0.00 0.00 0.00 0.00 0.00 0.00 0.00 0.00 0.00 0.00 0.00 0.01
0.04 0.02 0.01 0.01 0.00 0.00 0.00 0.00 0.00 0.00 0.00 0.00 0.00 0.00 0.00 0.00 0.00 0.00 0.00 0.00 0.00 0.00 0.00 0.00 0.00 0.00 0.00 0.00 0.00 0.00 0.00 0.00 0.00 0.00 0.00 0.00 0.00 0.00 0.00 0.00 0.00 0.00 0.00 0.00
0.05 0.02 0.01 0.01 0.01 0.00 0.00 0.00 0.00 0.00 0.00 0.00 0.00 0.00 0.00 0.00 0.00 0.00 0.00 0.00 0.00 0.00 0.00 0.00 0.00 0.00 0.00 0.00 0.00 0.00 0.00 0.00 0.00 0.00 0.00 0.00 0.00 0.00 0.00 0.00 0.00 0.00 0.00 0.00
0.10 0.05 0.03 0.02 0.01 0.00 0.00 0.00 0.00 0.00 0.00 0.00 0.00 0.00 0.00 0.00 0.00 0.00 0.00 0.00 0.00 0.00 0.00 0.00 0.00 0.00 0.00 0.00 0.00 0.00 0.00 0.00 0.00 0.00 0.00 0.00 0.00 0.00 0.00 0.00 0.00 0.00 0.00 0.00
0.24 0.15 0.10 0.07 0.03 0.00 0.00 0.00 0.00 0.00 0.00 0.00 0.00 0.00 0.00 0.00 0.00 0.00 0.00 0.00 0.00 0.00 0.00 0.00 0.00 0.00 0.00 0.00 0.00 0.00 0.00 0.00 0.00 0.00 0.00 0.00 0.00 0.00 0.00 0.00 0.00 0.00 0.00 0.00

GEFSNGP_prec_meanprecacc_060.txt.gz
Total_Precipitation_Accumulation
0.14 0.14 0.12 0.10 0.06 0.05 0.06 0.07 0.19 0.39 0.55 0.72 0.89 0.99 1.00 1.07 0.97 0.79 0.67 0.58 0.49 0.41 0.37 0.34 0.31 0.28 0.26 0.27 0.25 0.22 0.21 0.20 0.19 0.18 0.17 0.16 0.15 0.14 0.12 0.11 0.09 0.07 0.06 0.04
0.09 0.09 0.11 0.11 0.10 0.11 0.14 0.21 0.35 0.54 0.77 1.03 1.10 1.10 1.12 1.15 1.05 0.88 0.71 0.58 0.55 0.52 0.48 0.42 0.36 0.31 0.28 0.26 0.25 0.23 0.19 0.18 0.17 0.16 0.15 0.13 0.11 0.09 0.08 0.06 0.05 0.03 0.02 0.01
0.10 0.09 0.14 0.24 0.20 0.22 0.26 0.32 0.43 0.61 0.79 0.95 1.03 1.03 1.07 1.13 1.16 1.06 0.86 0.76 0.75 0.76 0.72 0.62 0.52 0.43 0.38 0.34 0.29 0.25 0.24 0.24 0.22 0.18 0.15 0.11 0.07 0.06 0.04 0.03 0.03 0.03 0.02 0.02
0.08 0.14 0.26 0.31 0.17 0.21 0.28 0.33 0.40 0.45 0.58 0.71 0.79 0.83 0.90 0.99 1.06 1.05 0.98 0.98 1.01 0.95 0.86 0.76 0.65 0.56 0.48 0.42 0.37 0.34 0.31 0.26 0.20 0.14 0.09 0.07 0.05 0.05 0.04 0.03 0.03 0.03 0.02 0.03
0.10 0.21 0.34 0.33 0.18 0.16 0.30 0.38 0.37 0.39 0.42 0.44 0.45 0.50 0.66 0.80 0.83 0.84 0.90 0.94 0.93 0.87 0.81 0.74 0.63 0.54 0.46 0.40 0.34 0.28 0.22 0.16 0.11 0.08 0.06 0.06 0.06 0.05 0.04 0.04 0.03 0.03 0.03 0.04
0.13 0.22 0.37 0.36 0.14 0.09 0.25 0.50 0.43 0.38 0.39 0.41 0.47 0.47 0.44 0.50 0.56 0.62 0.65 0.68 0.72 0.71 0.66 0.61 0.52 0.40 0.34 0.28 0.23 0.17 0.11 0.07 0.05 0.04 0.04 0.04 0.04 0.04 0.03 0.03 0.04 0.04 0.03 0.05
0.20 0.29 0.36 0.14 0.06 0.17 0.45 0.61 0.55 0.49 0.44 0.43 0.44 0.40 0.32 0.33 0.37 0.42 0.46 0.51 0.55 0.57 0.53 0.44 0.33 0.25 0.22 0.18 0.14 0.10 0.06 0.05 0.04 0.03 0.03 0.03 0.04 0.04 0.04 0.05 0.06 0.06 0.06 0.08
0.27 0.37 0.40 0.13 0.09 0.26 0.36 0.37 0.43 0.42 0.37 0.30 0.21 0.18 0.22 0.23 0.24 0.24 0.28 0.36 0.39 0.36 0.29 0.23 0.18 0.16 0.15 0.12 0.09 0.06 0.06 0.06 0.05 0.03 0.03 0.03 0.05 0.06 0.05 0.06 0.07 0.07 0.08 0.09
0.26 0.35 0.28 0.11 0.12 0.17 0.19 0.26 0.26 0.24 0.22 0.15 0.09 0.10 0.12 0.14 0.16 0.18 0.19 0.22 0.22 0.18 0.14 0.13 0.13 0.13 0.12 0.10 0.07 0.07 0.07 0.07 0.04 0.02 0.03 0.03 0.03 0.05 0.05 0.07 0.07 0.06 0.07 0.08
0.09 0.19 0.15 0.10 0.08 0.10 0.13 0.17 0.16 0.18 0.22 0.14 0.07 0.06 0.08 0.09 0.10 0.11 0.11 0.12 0.12 0.11 0.10 0.11 0.10 0.10 0.09 0.07 0.07 0.08 0.09 0.07 0.05 0.04 0.05 0.04 0.03 0.02 0.04 0.05 0.05 0.06 0.07 0.07
0.05 0.10 0.12 0.12 0.09 0.06 0.08 0.10 0.12 0.17 0.24 0.20 0.10 0.08 0.07 0.09 0.10 0.10 0.10 0.11 0.11 0.11 0.11 0.08 0.07 0.06 0.05 0.05 0.07 0.09 0.08 0.06 0.06 0.06 0.06 0.06 0.07 0.04 0.03 0.03 0.01 0.02 0.03 0.04
0.10 0.11 0.14 0.14 0.10 0.06 0.12 0.17 0.20 0.25 0.30 0.22 0.13 0.09 0.08 0.09 0.09 0.10 0.10 0.10 0.10 0.09 0.07 0.05 0.03 0.03 0.03 0.03 0.04 0.06 0.07 0.05 0.04 0.05 0.05 0.06 0.10 0.10 0.04 0.01 0.01 0.01 0.01 0.02
0.06 0.05 0.08 0.10 0.11 0.15 0.21 0.22 0.27 0.32 0.27 0.16 0.12 0.11 0.12 0.12 0.10 0.08 0.07 0.07 0.07 0.05 0.04 0.02 0.01 0.01 0.01 0.01 0.01 0.03 0.04 0.03 0.03 0.03 0.05 0.06 0.08 0.12 0.15 0.08 0.02 0.01 0.01 0.02
0.13 0.15 0.20 0.24 0.25 0.25 0.23 0.20 0.22 0.22 0.18 0.14 0.13 0.13 0.11 0.09 0.07 0.06 0.05 0.05 0.04 0.02 0.02 0.01 0.01 0.01 0.00 0.00 0.00 0.01 0.01 0.02 0.02 0.03 0.04 0.04 0.05 0.07 0.10 0.15 0.14 0.11 0.05 0.03
0.21 0.23 0.26 0.24 0.22 0.21 0.18 0.16 0.16 0.17 0.15 0.15 0.13 0.10 0.08 0.07 0.06 0.04 0.03 0.01 0.01 0.01 0.01 0.00 0.00 0.00 0.00 0.00 0.00 0.01 0.02 0.03 0.02 0.02 0.02 0.02 0.03 0.04 0.06 0.08 0.12 0.15 0.14 0.08
0.16 0.15 0.14 0.14 0.15 0.16 0.16 0.16 0.16 0.17 0.15 0.13 0.11 0.07 0.05 0.04 0.03 0.01 0.01 0.01 0.02 0.02 0.01 0.00 0.00 0.00 0.00 0.00 0.00 0.01 0.02 0.02 0.01 0.01 0.01 0.01 0.01 0.02 0.03 0.06 0.09 0.12 0.10 0.08
0.11 0.11 0.11 0.10 0.11 0.12 0.12 0.12 0.11 0.10 0.10 0.09 0.06 0.03 0.02 0.01 0.01 0.01 0.00 0.00 0.01 0.01 0.00 0.00 0.00 0.00 0.00 0.00 0.00 0.00 0.00 0.01 0.00 0.00 0.00 0.00 0.00 0.01 0.02 0.03 0.06 0.08 0.06 0.06
0.12 0.10 0.09 0.07 0.07 0.06 0.07 0.07 0.06 0.05 0.05 0.03 0.01 0.01 0.01 0.01 0.01 0.00 0.00 0.00 0.00 0.00 0.00 0.00 0.00 0.00 0.00 0.00 0.00 0.00 0.00 0.00 0.00 0.00 0.00 0.00 0.00 0.00 0.00 0.02 0.03 0.05 0.06 0.06
0.10 0.06 0.04 0.03 0.03 0.03 0.03 0.04 0.03 0.02 0.01 0.01 0.01 0.01 0.01 0.00 0.00 0.00 0.00 0.00 0.00 0.00 0.00 0.00 0.00 0.00 0.00 0.00 0.00 0.00 0.00 0.00 0.00 0.00 0.00 0.00 0.00 0.00 0.00 0.01 0.02 0.03 0.04 0.05
0.06 0.02 0.01 0.01 0.01 0.02 0.02 0.01 0.01 0.01 0.00 0.00 0.00 0.00 0.00 0.00 0.00 0.00 0.00 0.00 0.00 0.00 0.00 0.00 0.00 0.00 0.00 0.00 0.00 0.00 0.00 0.00 0.00 0.00 0.00 0.00 0.00 0.00 0.00 0.00 0.01 0.02 0.03 0.04
0.02 0.01 0.01 0.01 0.01 0.01 0.00 0.00 0.00 0.00 0.00 0.00 0.00 0.00 0.00 0.00 0.00 0.00 0.00 0.00 0.00 0.00 0.00 0.00 0.00 0.00 0.00 0.00 0.00 0.00 0.00 0.00 0.00 0.00 0.00 0.00 0.00 0.00 0.01 0.01 0.01 0.01 0.02 0.03
0.02 0.01 0.01 0.00 0.00 0.00 0.00 0.00 0.00 0.00 0.00 0.00 0.00 0.00 0.00 0.00 0.00 0.00 0.00 0.00 0.00 0.00 0.00 0.00 0.00 0.00 0.00 0.00 0.00 0.00 0.00 0.00 0.00 0.00 0.00 0.00 0.00 0.00 0.00 0.00 0.00 0.00 0.01 0.02
0.03 0.01 0.01 0.00 0.00 0.00 0.00 0.00 0.00 0.00 0.00 0.00 0.00 0.00 0.00 0.00 0.00 0.00 0.00 0.00 0.00 0.00 0.00 0.00 0.00 0.00 0.00 0.00 0.00 0.00 0.00 0.00 0.00 0.00 0.00 0.00 0.00 0.00 0.00 0.00 0.00 0.00 0.00 0.01
0.04 0.02 0.01 0.01 0.00 0.00 0.00 0.00 0.00 0.00 0.00 0.00 0.00 0.00 0.00 0.00 0.00 0.00 0.00 0.00 0.00 0.00 0.00 0.00 0.00 0.00 0.00 0.00 0.00 0.00 0.00 0.00 0.00 0.00 0.00 0.00 0.00 0.00 0.00 0.00 0.00 0.00 0.00 0.00
0.05 0.02 0.01 0.01 0.01 0.00 0.00 0.00 0.00 0.00 0.00 0.00 0.00 0.00 0.00 0.00 0.00 0.00 0.00 0.00 0.00 0.00 0.00 0.00 0.00 0.00 0.00 0.00 0.00 0.00 0.00 0.00 0.00 0.00 0.00 0.00 0.00 0.00 0.00 0.00 0.00 0.00 0.00 0.00
0.10 0.05 0.03 0.02 0.01 0.00 0.00 0.00 0.00 0.00 0.00 0.00 0.00 0.00 0.00 0.00 0.00 0.00 0.00 0.00 0.00 0.00 0.00 0.00 0.00 0.00 0.00 0.00 0.00 0.00 0.00 0.00 0.00 0.00 0.00 0.00 0.00 0.00 0.00 0.00 0.00 0.00 0.00 0.00
0.24 0.15 0.10 0.07 0.03 0.00 0.00 0.00 0.00 0.00 0.00 0.00 0.00 0.00 0.00 0.00 0.00 0.00 0.00 0.00 0.00 0.00 0.00 0.00 0.00 0.00 0.00 0.00 0.00 0.00 0.00 0.00 0.00 0.00 0.00 0.00 0.00 0.00 0.00 0.00 0.00 0.00 0.00 0.00